Wind_Speed
32 32 32 32 32 32 33 33 33 33 35 36 36 36 34 34 34 34 34 34 34 34 35 36 37 37 37 38 39 39 39 39 39 40 40 41 41 41 42 42 42 42 42 41
33 33 33 33 33 34 34 34 34 34 35 37 37 37 35 34 34 35 35 35 36 36 36 36 37 37 38 38 39 39 40 41 41 41 42 42 42 43 44 44 44 44 44 44
33 33 33 34 34 34 34 35 35 35 36 37 38 37 36 35 35 35 35 36 37 37 37 37 38 39 39 40 40 40 40 41 42 43 44 44 44 45 45 45 45 45 45 46
33 33 33 34 34 35 35 35 35 35 36 37 37 38 35 35 35 35 35 37 38 38 39 38 39 40 40 41 41 41 41 41 42 43 44 45 45 45 45 46 47 47 47 47
32 32 33 33 33 34 35 35 35 36 37 38 37 40 38 36 36 35 36 36 37 38 39 39 40 41 41 41 42 42 42 42 43 44 45 45 46 47 46 47 48 48 49 49
32 33 33 33 33 34 34 35 36 37 38 39 37 39 39 37 36 37 37 37 38 38 39 40 40 41 42 42 42 43 43 43 44 44 45 46 47 48 48 49 49 49 49 49
32 33 33 33 34 34 35 35 37 38 38 38 37 39 39 37 37 37 38 38 38 39 39 40 41 41 42 43 44 44 44 44 45 45 46 46 47 49 49 50 50 50 50 50
33 33 33 34 34 35 35 34 35 37 38 38 38 39 38 37 37 38 38 38 39 39 39 40 41 42 42 43 44 45 45 46 46 47 48 49 49 49 50 50 50 50 50 50
33 33 32 32 32 33 33 33 34 36 39 40 40 40 38 38 38 38 38 38 39 40 40 40 41 41 42 43 44 45 46 47 48 48 49 49 49 49 49 50 49 50 50 49
33 35 33 32 33 32 32 33 34 35 38 41 41 40 38 37 37 38 38 39 39 40 41 42 41 42 42 42 43 44 45 45 46 48 48 49 49 50 50 50 50 49 50 50
34 35 34 33 32 32 33 34 35 36 38 40 41 39 37 36 36 35 36 37 38 40 41 42 42 42 42 42 42 43 44 45 45 47 47 48 49 49 49 49 50 50 49 50
33 35 35 35 34 33 33 34 34 36 37 38 39 38 36 36 35 34 35 35 37 39 40 41 41 42 42 43 43 43 44 44 44 45 46 46 47 48 49 49 49 50 50 50
32 34 34 35 35 34 33 33 34 36 38 39 40 39 37 37 37 36 36 36 37 38 40 40 41 41 42 42 42 43 43 44 44 45 45 45 46 47 48 49 49 50 50 50
32 33 33 34 34 35 34 33 34 36 37 39 39 39 36 37 37 38 39 38 38 39 39 40 40 41 41 42 42 43 43 43 44 44 45 46 47 47 48 49 50 50 51 51
34 34 33 34 33 34 35 35 35 37 38 39 38 39 37 38 39 39 39 39 39 39 39 39 40 41 41 42 42 43 43 43 44 44 45 46 46 47 48 49 49 50 51 51
35 35 34 34 33 34 36 36 36 37 38 39 40 39 38 40 41 40 40 39 38 38 38 38 39 40 41 42 42 42 42 43 44 44 44 45 45 46 47 47 48 49 50 50
35 35 35 35 35 36 36 34 36 37 37 39 40 39 39 40 40 41 41 40 39 39 39 39 39 40 40 40 40 41 41 42 42 43 44 44 45 45 46 47 47 48 49 49
34 34 35 36 36 37 35 34 35 36 36 38 38 38 39 40 39 39 40 40 39 39 39 40 39 39 40 40 40 40 41 41 42 42 43 44 45 46 47 47 48 48 49 50
34 35 36 36 37 36 33 33 34 36 36 36 37 38 39 39 39 39 38 38 38 38 38 39 39 39 39 40 40 40 40 40 41 42 42 43 45 46 46 47 48 48 49 49
33 33 34 35 37 36 34 34 35 36 36 35 36 37 37 37 38 37 37 38 38 38 38 39 39 39 39 40 40 40 40 41 41 42 43 44 44 45 45 46 47 47 48 49
31 32 33 34 36 36 35 35 35 36 36 36 36 37 37 37 37 36 37 37 37 37 38 38 39 39 39 39 40 40 41 42 42 43 43 43 43 44 45 45 45 46 47 47
31 32 32 33 35 35 34 34 34 35 35 35 36 36 37 36 36 36 35 36 36 37 37 38 38 39 39 40 40 40 41 42 43 43 43 43 43 43 44 44 45 45 46 46
30 31 31 32 33 34 34 34 33 34 34 34 35 35 35 35 35 35 35 35 35 36 37 37 38 39 39 40 40 40 41 42 42 43 44 44 44 44 44 44 44 45 45 45
29 30 31 32 32 32 33 33 33 33 33 33 33 34 35 35 35 35 35 35 35 35 36 37 37 38 39 40 40 41 41 42 42 43 43 43 43 43 44 44 44 44 44 44
30 31 31 31 31 32 32 33 33 34 34 34 34 34 34 34 34 35 35 35 35 35 34 35 36 37 38 38 39 40 41 41 42 42 42 42 42 42 43 43 43 43 43 42
30 31 32 31 31 31 31 32 33 33 34 34 34 34 34 34 34 34 35 35 34 34 34 34 35 36 37 38 38 39 40 41 41 41 41 42 42 42 42 42 43 43 42 42
Wind_Direction
272 271 271 273 273 274 272 271 268 267 266 266 265 263 261 259 258 257 257 256 255 255 254 254 255 255 255 255 255 255 254 254 255 255 256 257 257 256 257 258 259 261 262 263
272 271 273 272 272 273 274 273 270 269 268 267 264 263 261 260 259 258 257 257 256 256 256 256 256 256 256 255 256 255 256 256 256 256 257 257 257 256 256 257 259 261 262 263
274 274 273 272 273 274 274 274 273 272 269 269 266 262 260 260 259 259 257 257 257 257 257 255 256 256 257 257 256 256 256 256 257 257 257 258 258 257 257 258 260 261 263 263
274 274 274 273 273 274 274 275 274 273 271 269 267 265 260 261 260 260 258 257 258 258 257 257 257 258 258 257 257 257 257 257 257 258 258 258 258 259 259 259 260 261 262 264
277 276 275 274 274 273 274 274 274 273 272 269 268 268 263 262 262 262 261 260 259 259 258 259 259 259 259 258 257 258 257 257 258 258 258 259 259 259 260 260 260 261 262 263
277 277 275 274 273 273 272 273 273 273 272 269 268 270 268 264 264 264 264 263 261 260 260 260 261 260 260 260 259 259 258 258 259 259 258 259 260 260 260 261 261 262 263 263
277 277 276 274 273 273 272 272 274 274 272 271 271 270 271 269 267 266 266 265 264 263 263 261 260 260 260 260 260 260 259 258 259 259 259 260 261 262 262 263 263 263 262 262
279 279 277 275 274 274 273 273 274 275 275 273 272 272 273 272 271 269 268 267 266 264 263 262 261 261 261 261 261 261 261 260 260 260 260 261 262 263 263 263 263 263 263 262
280 281 279 277 275 274 272 272 274 275 276 275 272 272 272 273 273 272 270 269 268 265 264 263 262 262 262 262 262 262 262 262 261 262 262 262 263 263 263 263 264 263 263 262
281 281 279 277 276 273 273 275 275 275 276 276 275 273 273 274 275 275 273 271 269 267 265 264 264 263 263 263 263 263 263 262 262 262 263 263 263 263 263 263 264 265 263 262
282 281 279 278 275 275 274 274 274 273 274 276 276 274 274 274 275 276 275 272 269 268 267 266 265 264 264 264 263 264 264 264 264 264 264 264 264 264 263 264 264 264 263 261
283 281 279 278 276 275 275 275 274 273 273 274 276 275 275 276 275 276 274 272 270 268 268 267 265 264 264 265 265 265 265 265 265 265 265 266 265 264 264 265 264 264 263 262
283 281 281 279 277 275 275 274 274 273 273 273 274 276 276 277 276 275 275 273 271 270 268 266 265 265 265 266 266 267 266 266 267 266 266 265 265 266 265 265 265 265 264 263
282 282 280 280 279 276 274 275 274 274 275 274 274 275 275 277 276 275 274 274 273 271 270 267 266 266 265 266 266 266 266 266 266 267 266 266 266 266 266 266 266 266 264 263
281 281 280 278 277 275 273 273 274 274 275 275 275 275 275 277 277 276 275 275 274 272 270 269 266 265 265 266 266 266 266 266 267 267 266 267 267 267 268 268 267 266 264 264
280 280 280 278 276 276 274 274 275 275 275 276 276 275 276 277 277 276 275 275 274 273 271 270 268 267 267 267 267 267 267 267 267 268 268 268 268 268 267 267 267 267 266 265
280 279 280 279 277 277 277 278 277 277 278 278 277 277 276 276 277 276 275 275 274 272 271 270 270 269 268 269 269 268 268 268 268 268 268 268 268 268 268 267 267 267 267 265
281 280 281 281 281 280 282 281 280 279 279 279 279 278 278 277 278 277 277 276 275 273 271 270 271 270 270 270 270 270 270 270 271 270 270 269 270 270 270 269 269 268 267 266
283 281 281 282 282 282 282 284 283 282 281 281 281 281 281 280 279 277 276 276 275 273 272 270 270 270 270 270 270 271 272 272 273 273 273 272 271 272 271 271 271 270 269 268
284 282 281 283 284 284 286 286 287 285 283 283 282 282 283 283 281 279 277 276 275 273 272 271 270 270 270 271 271 272 273 273 274 274 274 274 273 273 273 273 272 271 271 270
284 284 283 283 285 287 290 289 288 287 286 284 284 283 283 283 282 280 278 277 276 274 273 272 271 271 271 272 273 273 274 274 275 275 275 274 275 274 274 274 273 272 272 271
285 285 285 285 286 289 291 290 289 289 287 284 284 283 283 283 282 282 280 278 276 274 273 272 271 271 272 273 274 275 275 276 276 276 276 275 275 275 275 274 274 274 273 272
287 288 287 287 287 288 288 287 287 287 288 286 285 284 282 281 281 281 281 280 277 275 273 273 272 272 273 274 275 276 277 277 277 276 276 276 276 276 275 275 275 274 274 273
288 288 288 288 288 288 287 287 287 287 287 287 285 284 283 282 282 282 281 281 280 277 275 274 273 273 274 275 276 276 278 278 278 277 277 277 277 276 276 276 276 275 275 273
289 288 288 289 290 287 286 287 288 287 286 287 286 285 284 284 283 283 282 281 281 279 278 277 276 275 276 277 277 277 278 278 278 279 279 279 278 278 277 276 276 276 275 274
289 289 288 289 289 289 289 288 289 290 288 288 288 287 286 286 285 283 283 282 282 281 280 279 279 279 279 279 279 280 280 280 279 279 279 279 278 278 278 277 276 276 275 274
Height
5697 5697 5697 5697 5697 5696 5695 5694 5694 5695 5694 5694 5694 5695 5697 5698 5699 5700 5701 5702 5704 5705 5706 5707 5708 5709 5711 5713 5714 5716 5718 5719 5721 5723 5724 5727 5729 5731 5733 5734 5736 5737 5738 5739
5690 5689 5690 5689 5688 5687 5686 5686 5686 5686 5685 5684 5685 5686 5688 5689 5690 5692 5693 5694 5695 5697 5697 5698 5700 5701 5702 5703 5704 5706 5708 5710 5711 5712 5714 5717 5718 5720 5722 5724 5725 5726 5728 5729
5680 5682 5681 5680 5679 5678 5678 5678 5677 5677 5676 5675 5675 5677 5680 5681 5681 5683 5684 5685 5686 5688 5689 5690 5691 5692 5693 5694 5695 5696 5698 5699 5701 5702 5704 5706 5708 5709 5711 5713 5715 5716 5717 5718
5672 5672 5671 5670 5670 5669 5669 5669 5668 5667 5666 5666 5666 5666 5672 5672 5673 5674 5675 5676 5677 5679 5679 5680 5681 5682 5683 5684 5685 5686 5687 5689 5690 5692 5693 5695 5696 5698 5700 5702 5703 5704 5705 5706
5664 5663 5662 5662 5662 5661 5660 5660 5659 5657 5656 5656 5657 5657 5662 5663 5664 5665 5666 5667 5668 5669 5670 5670 5671 5672 5673 5674 5675 5676 5677 5679 5680 5681 5683 5684 5685 5686 5688 5690 5691 5692 5693 5694
5655 5654 5653 5653 5653 5652 5651 5651 5649 5648 5647 5647 5649 5648 5650 5654 5656 5656 5657 5657 5658 5659 5660 5660 5661 5662 5662 5664 5665 5666 5667 5668 5669 5670 5671 5673 5674 5675 5676 5677 5679 5680 5681 5681
5647 5646 5645 5644 5643 5643 5642 5642 5640 5638 5637 5638 5640 5639 5642 5644 5645 5646 5646 5647 5647 5648 5649 5650 5650 5651 5652 5653 5654 5655 5656 5657 5658 5659 5660 5661 5662 5662 5664 5665 5665 5666 5667 5668
5638 5637 5636 5635 5634 5634 5633 5632 5631 5630 5629 5630 5630 5630 5634 5634 5634 5634 5635 5635 5636 5637 5637 5638 5639 5640 5641 5642 5643 5644 5645 5645 5646 5647 5647 5648 5649 5650 5651 5651 5652 5652 5653 5655
5629 5628 5628 5626 5625 5625 5624 5623 5623 5621 5619 5619 5620 5622 5624 5624 5624 5624 5624 5624 5624 5625 5626 5627 5627 5628 5629 5630 5631 5631 5632 5633 5634 5634 5635 5635 5636 5637 5638 5638 5638 5639 5639 5640
5620 5619 5619 5618 5617 5616 5616 5615 5613 5611 5609 5608 5610 5612 5614 5614 5614 5614 5614 5613 5613 5614 5614 5615 5616 5616 5617 5618 5618 5619 5619 5620 5620 5621 5622 5622 5623 5623 5624 5625 5625 5625 5626 5627
5612 5611 5610 5609 5608 5608 5607 5606 5604 5602 5601 5599 5599 5605 5605 5604 5604 5603 5603 5602 5602 5602 5603 5603 5604 5604 5605 5606 5606 5607 5607 5607 5608 5608 5609 5609 5610 5610 5610 5611 5611 5612 5613 5613
5604 5602 5601 5601 5600 5598 5597 5596 5595 5594 5593 5590 5589 5595 5595 5595 5594 5593 5592 5591 5590 5591 5591 5592 5592 5593 5593 5594 5594 5594 5595 5595 5595 5596 5596 5596 5597 5597 5597 5597 5598 5598 5599 5600
5595 5593 5592 5591 5592 5590 5588 5587 5586 5585 5584 5582 5581 5586 5585 5584 5583 5582 5581 5580 5580 5580 5580 5580 5580 5581 5581 5582 5582 5582 5582 5583 5583 5583 5583 5583 5584 5584 5584 5584 5584 5584 5585 5586
5585 5584 5583 5583 5581 5579 5579 5578 5577 5575 5573 5572 5573 5574 5576 5574 5573 5572 5571 5570 5569 5569 5569 5569 5569 5569 5569 5570 5570 5570 5570 5570 5570 5570 5570 5571 5571 5571 5571 5571 5571 5571 5571 5572
5576 5575 5574 5572 5571 5570 5569 5569 5567 5566 5564 5563 5564 5563 5565 5563 5562 5561 5560 5559 5558 5558 5558 5557 5557 5557 5557 5558 5558 5558 5558 5558 5558 5558 5557 5557 5557 5557 5557 5557 5557 5557 5557 5558
5567 5565 5564 5563 5562 5560 5559 5559 5558 5556 5555 5553 5552 5553 5554 5551 5550 5549 5549 5548 5548 5547 5546 5546 5546 5546 5546 5546 5546 5546 5546 5545 5545 5545 5545 5544 5544 5544 5543 5543 5543 5543 5543 5543
5558 5556 5554 5553 5553 5549 5550 5552 5549 5547 5546 5544 5543 5544 5542 5541 5539 5538 5538 5537 5536 5536 5535 5535 5535 5534 5534 5534 5534 5534 5533 5533 5533 5532 5532 5531 5531 5530 5530 5529 5529 5529 5529 5529
5549 5547 5544 5543 5543 5540 5545 5541 5539 5537 5536 5534 5533 5532 5531 5530 5528 5527 5527 5526 5525 5525 5524 5524 5523 5523 5523 5522 5522 5522 5521 5521 5520 5520 5519 5519 5518 5517 5517 5516 5516 5515 5515 5515
5540 5538 5536 5534 5531 5531 5534 5533 5529 5527 5527 5525 5523 5521 5520 5519 5518 5517 5516 5515 5514 5513 5513 5512 5512 5512 5512 5511 5510 5510 5510 5509 5508 5507 5507 5506 5505 5504 5503 5503 5502 5501 5501 5500
5531 5529 5528 5525 5522 5522 5526 5523 5519 5518 5517 5516 5513 5511 5510 5508 5507 5508 5505 5504 5503 5502 5502 5501 5501 5500 5500 5500 5499 5498 5498 5497 5496 5495 5494 5493 5492 5491 5490 5489 5488 5487 5486 5486
5523 5521 5519 5517 5513 5513 5516 5512 5510 5509 5508 5505 5503 5501 5499 5497 5497 5496 5494 5493 5492 5491 5491 5490 5489 5489 5489 5488 5487 5487 5486 5485 5484 5482 5481 5480 5478 5477 5476 5475 5474 5473 5473 5472
5514 5512 5511 5509 5506 5508 5506 5503 5501 5499 5496 5494 5492 5490 5489 5487 5486 5485 5483 5482 5481 5480 5480 5479 5478 5478 5477 5476 5476 5475 5474 5473 5471 5470 5468 5467 5466 5464 5463 5462 5461 5460 5459 5458
5506 5505 5502 5501 5501 5499 5496 5493 5491 5488 5486 5484 5482 5480 5478 5477 5476 5475 5473 5472 5471 5470 5469 5468 5467 5466 5465 5464 5464 5463 5461 5460 5459 5457 5456 5454 5453 5451 5450 5449 5448 5447 5446 5445
5498 5496 5493 5492 5491 5489 5486 5484 5481 5479 5477 5474 5472 5470 5468 5467 5466 5465 5463 5462 5460 5459 5458 5457 5456 5455 5454 5453 5452 5450 5449 5448 5446 5445 5443 5441 5440 5438 5437 5436 5434 5433 5432 5431
5490 5487 5484 5483 5482 5479 5477 5474 5472 5470 5467 5465 5462 5460 5459 5457 5456 5455 5453 5452 5450 5449 5447 5446 5445 5444 5442 5441 5440 5438 5437 5435 5434 5432 5430 5429 5427 5425 5424 5423 5421 5420 5419 5418
5481 5478 5476 5474 5473 5470 5468 5465 5463 5461 5458 5456 5453 5451 5449 5447 5446 5444 5443 5442 5440 5439 5437 5435 5434 5433 5431 5430 5428 5426 5425 5423 5421 5420 5418 5416 5415 5413 5411 5410 5408 5406 5406 5405